Weather History for PHNL - March, 2014

Change the Weather History Date:

Monday, March 10, 2014

  Actual Average Record
Temperature  
Mean Temperature 75 °F 74 °F  
Max Temperature 81 °F 81 °F 86 °F (1986)
Min Temperature 69 °F 67 °F 58 °F (2015)
Degree Days  
Heating Degree Days 0 0  
Month to date heating degree days 0 0  
Since 1 July heating degree days 0 0  
Cooling Degree Days 10 9  
Month to date cooling degree days 82 89  
Year to date cooling degree days 601 571  
Growing Degree Days 24 (Base 50)    
Moisture  
Dew Point 66 °F    
Average Humidity 76    
Maximum Humidity 90    
Minimum Humidity 62    
Precipitation  
Precipitation T in 0.08 in 1.67 in (2013)
Month to date precipitation 2.37 0.70  
Year to date precipitation 6.05 5.00  
Snow  
Snow 0.00 in - - ()
Month to date snowfall 0.0  
Since 1 July snowfall 0.0  
Snow Depth 0.00 in    
Sea Level Pressure  
Sea Level Pressure 30.03 in    
Wind  
Wind Speed 6 mph (NE)    
Max Wind Speed 14 mph    
Max Gust Speed 17 mph    
Visibility 10 miles    
Events Rain    
T = Trace of Precipitation, MM = Missing Value Source: NWS Daily Summary

Daily Weather History Graph

Daily Weather History Graph

Search for Another Location

Airport or City:

Trip Planner

Search our weather history database for the weather conditions in past years. The results will help you decide how hot, cold, wet, or windy it might be!

Date:

Astronomy

Mar. 10, 2014 Rise Set
Actual Time 6:44 AM HST 6:39 PM HST
Civil Twilight 6:22 AM HST 7:01 PM HST
Nautical Twilight 5:56 AM HST 7:27 PM HST
Astronomical Twilight 5:30 AM HST 7:53 PM HST
Moon 2:00 PM HST (3/10) 2:35 AM HST (3/10)
Length of Visible Light 12h 39m
Length of Day
11h 55m
Waxing Gibbous, 72% of the Moon is Illuminated
Mar 10
Waxing Gibbous
Mar 16
Full
Mar 23
Last Quarter
Mar 30
New
Apr 6
First Quarter

Hourly Weather History & Observations

Time (HST) Temp. Heat Index Dew Point Humidity Pressure Visibility Wind Dir Wind Speed Gust Speed Precip Events Conditions
12:53 AM 73.0 °F - 66.0 °F 79% 30.07 in 10.0 mi NE 9.2 mph - N/A   Partly Cloudy
1:53 AM 73.0 °F - 66.0 °F 79% 30.05 in 10.0 mi ENE 5.8 mph - N/A   Partly Cloudy
2:53 AM 72.0 °F - 66.0 °F 81% 30.03 in 10.0 mi ENE 8.1 mph - N/A   Partly Cloudy
3:53 AM 72.0 °F - 66.0 °F 81% 30.02 in 10.0 mi NNW 3.5 mph - N/A   Scattered Clouds
4:53 AM 70.0 °F - 66.0 °F 87% 30.02 in 10.0 mi North 4.6 mph - N/A   Scattered Clouds
5:53 AM 70.0 °F - 64.9 °F 84% 30.02 in 10.0 mi Calm Calm - N/A   Partly Cloudy
6:53 AM 69.1 °F - 64.9 °F 87% 30.05 in 10.0 mi North 3.5 mph - N/A   Partly Cloudy
7:53 AM 73.0 °F - 66.0 °F 79% 30.06 in 10.0 mi Calm Calm - N/A   Scattered Clouds
8:53 AM 75.9 °F - 66.9 °F 74% 30.08 in 10.0 mi Calm Calm - N/A   Scattered Clouds
9:53 AM 78.1 °F - 66.0 °F 66% 30.09 in 10.0 mi Calm Calm - N/A   Scattered Clouds
10:53 AM 79.0 °F - 66.9 °F 66% 30.08 in 10.0 mi Calm Calm - N/A   Scattered Clouds
11:53 AM 80.1 °F 82.3 °F 66.9 °F 64% 30.05 in 10.0 mi SE 13.8 mph - N/A   Scattered Clouds
12:53 PM 80.1 °F 82.3 °F 66.9 °F 64% 30.01 in 10.0 mi SSE 13.8 mph - N/A   Scattered Clouds
1:53 PM 80.1 °F 82.3 °F 66.9 °F 64% 29.99 in 10.0 mi SE 9.2 mph - N/A   Mostly Cloudy
2:53 PM 75.9 °F - 68.0 °F 76% 29.98 in 10.0 mi NE 10.4 mph - 0.00 in Rain Light Rain
3:53 PM 75.9 °F - 68.0 °F 76% 29.97 in 10.0 mi NNE 8.1 mph - 0.00 in   Mostly Cloudy
4:53 PM 78.1 °F - 66.0 °F 66% 29.97 in 10.0 mi Calm Calm - N/A   Mostly Cloudy
5:27 PM 78.8 °F - 66.2 °F 65% 29.97 in 10.0 mi Calm Calm - N/A   Mostly Cloudy
5:53 PM 78.1 °F - 66.0 °F 66% 29.98 in 10.0 mi NNE 6.9 mph - N/A   Mostly Cloudy
6:53 PM 75.0 °F - 64.9 °F 71% 29.99 in 10.0 mi NNE 5.8 mph - N/A   Scattered Clouds
7:53 PM 73.0 °F - 64.9 °F 76% 30.01 in 10.0 mi NNE 3.5 mph - N/A   Scattered Clouds
8:53 PM 73.0 °F - 64.9 °F 76% 30.04 in 10.0 mi Calm Calm - N/A   Scattered Clouds
9:53 PM 72.0 °F - 64.0 °F 76% 30.05 in 10.0 mi NNE 3.5 mph - N/A   Scattered Clouds
10:53 PM 72.0 °F - 64.0 °F 76% 30.06 in 10.0 mi NNW 3.5 mph - N/A   Scattered Clouds
11:53 PM 71.1 °F - 64.0 °F 78% 30.05 in 10.0 mi Calm Calm - N/A   Partly Cloudy